Weather in Pochinok

Russia / Smolensk Oblast     54°48′54″N   33°28′28″E
temp.,
°C
wind,
m/s
gust,
m/s
humid.,
%
clouds,
%
prec.,
mm/h
press.,
hPa
HPBL,
m
18 may, tue
tue1800:00+18ese412835 0.0 1004439
03:00+16ese399293 0.1 1004313
06:00+16ese399759 3.1 1003317
09:00+20sse498274 3.1 1004621
12:00+23sse4763100 0.3 10041433
15:00+23sse3870100 2.1 10031047
18:00+22se4106278 0.3 10011068
21:00+18ese71479100 1.3 10011027
19 may, wed
wed1900:00+15sse4109556 0.0 1003527
03:00+13ese3109498 0.1 1003420
06:00+14se3996100 0.0 1003435
09:00+17sse597321 0.0 1004975
12:00+19sse5872100 0.8 10041398
15:00+20sse4763100 1.4 10051558
18:00+18sse3782100 1.0 1005681
21:00+14se2593100 2.3 1005108
20 may, thu
thu2000:00+14ssw1195100 0.4 100418
03:00+13nnw3598100 3.0 1002211
06:00+13ene2798100 1.9 1001407
09:00+14e3592100 2.6 1000472
12:00+15ese5889100 2.4 999790
15:00+14sw3493100 4.6 998437
18:00+10wsw71195100 0.6 1002862
21:00+9wsw61195100 0.8 1005924
21 may, fri
fri2100:00+9w51193100 0.2 1007753
03:00+9wnw51191100 0.3 1009813
06:00+8w399594 0.0 1011498
09:00+11wnw357612 0.0 1013658
12:00+16wnw455199 0.0 10141583
15:00+17w3443100 0.0 10141662
18:00+16wsw3357100 0.0 10151360
21:00+12sw227482 0.0 101628
22 may, sat
sat2200:00+8wnw22875 0.0 101712
03:00+7nnw11910 0.0 101710
06:00+8nne12860 0.0 101743
09:00+15e12610 0.0 1017632
12:00+18s224396 0.0 10161639
15:00+19sw22402 0.0 10161713
18:00+19ssw12466 0.0 10151326
21:00+13s1175100 0.0 101512